GFSSGP_700_temp_096.txt.gz
Temp
10 10 10 11 10 10 11 13 14 14 13 13 13 13 12 12 12 12 11 12 13 12 12 12 11 10 10 10 9 9 9 9 9 9 9 9 9 9 9 9 9 9 9 9 9 9 9 9 9
10 10 10 10 9 10 12 14 14 13 13 13 12 12 12 12 12 12 12 12 12 12 12 12 11 11 10 10 10 9 9 9 9 9 8 8 8 8 8 8 8 8 8 8 8 8 8 8 8
10 10 10 9 10 10 12 14 14 14 13 13 12 12 12 12 12 12 12 12 12 12 12 12 11 11 10 10 9 9 9 9 9 8 8 8 8 8 8 8 7 7 7 7 7 7 7 7 8
9 9 9 9 10 12 13 14 12 13 13 12 12 12 12 12 12 13 12 12 12 12 11 11 11 11 10 10 9 9 9 9 8 8 8 8 7 7 7 7 7 7 7 7 7 7 7 7 7
9 9 9 9 10 11 12 13 13 12 12 12 12 12 12 12 13 12 12 12 11 12 11 11 11 10 10 10 9 9 8 8 8 8 7 6 7 7 7 7 8 8 7 7 7 7 7 7 7
8 9 8 9 10 11 12 13 13 11 12 12 12 12 12 12 12 12 11 12 11 12 11 11 10 10 10 9 9 8 7 7 7 7 7 6 7 8 8 8 8 8 7 7 7 7 7 7 7
8 8 8 9 11 12 13 13 13 12 12 12 12 12 12 12 12 11 11 11 11 11 11 10 10 10 9 9 8 7 7 7 7 7 7 7 7 8 8 8 8 7 7 7 7 7 7 7 7
8 8 8 9 10 11 12 11 12 12 12 12 12 12 12 12 12 11 11 11 11 11 11 10 10 9 9 8 7 7 7 7 7 7 7 7 8 7 7 7 7 7 7 7 7 6 6 6 6
7 7 7 9 9 10 12 12 11 9 11 11 10 11 11 11 11 11 11 11 11 11 10 10 10 9 8 8 7 7 7 7 7 7 7 7 7 7 7 7 7 7 6 6 6 6 6 6 6
7 7 8 8 9 10 11 11 11 10 9 11 10 11 11 12 11 11 11 11 11 10 10 10 9 9 8 7 7 7 7 7 7 7 7 7 7 7 7 6 6 6 6 6 6 6 6 6 5
6 8 8 8 9 9 10 10 10 10 10 11 10 10 11 11 11 11 11 11 10 10 9 9 9 9 8 8 6 7 7 7 7 7 7 6 7 6 6 6 6 6 5 5 5 5 5 5 5
6 6 6 7 8 9 9 9 10 9 8 9 10 10 10 11 11 11 11 10 10 10 9 8 7 8 7 9 6 7 7 6 6 6 6 6 6 6 6 6 5 5 5 5 5 4 4 4 5
5 6 6 7 7 8 8 8 9 9 9 10 10 9 9 10 11 11 10 9 10 9 9 8 8 6 6 6 6 6 6 6 6 6 6 6 6 5 5 5 5 5 5 4 4 4 4 4 4
6 6 6 6 6 7 7 8 8 9 9 9 9 10 9 10 9 9 9 7 8 9 8 8 8 8 6 6 5 6 5 5 6 5 6 5 5 5 5 5 5 4 4 4 4 4 4 4 4
4 5 6 6 7 7 7 7 8 9 9 8 9 10 9 10 9 8 10 8 7 8 8 8 7 7 6 7 6 6 5 5 5 5 5 5 5 5 5 4 4 4 4 3 3 3 3 3 3
5 4 4 7 6 7 6 8 9 7 8 9 9 8 10 8 9 8 10 8 8 7 8 8 7 6 7 7 6 5 5 5 5 5 4 4 4 4 4 4 4 4 3 3 3 3 3 3 3
5 5 6 6 7 7 7 7 7 8 8 9 9 9 9 8 8 7 7 8 7 6 6 8 7 6 6 6 5 5 5 5 5 4 5 5 4 4 4 4 3 3 3 3 3 3 3 3 3
5 5 5 5 7 7 7 7 7 7 8 8 8 8 9 8 8 8 8 8 6 6 6 8 7 7 5 6 5 5 5 4 4 5 5 5 4 4 4 3 3 3 3 3 2 2 2 2 2
4 4 4 4 5 5 6 7 7 7 7 8 9 9 9 8 8 8 8 7 9 6 7 6 8 7 7 5 5 4 4 4 4 4 4 4 4 3 3 3 3 3 2 2 2 2 2 2 2
3 3 4 4 4 4 5 6 7 7 7 8 8 8 7 8 8 8 8 7 7 8 6 7 8 7 7 6 5 5 4 4 4 4 4 4 4 3 3 3 3 2 2 2 2 2 2 2 1
3 3 3 4 4 4 5 5 6 7 7 8 7 8 8 8 8 7 9 7 7 8 7 7 7 7 6 6 5 4 4 5 4 4 4 3 3 3 3 2 2 2 2 2 1 1 1 1 0
2 3 3 3 3 4 4 5 6 7 8 8 7 8 7 7 8 7 6 7 9 7 6 7 7 6 6 5 5 5 4 4 3 3 3 3 3 3 2 2 2 1 1 1 0 0 0 0 0
2 2 2 2 3 4 4 4 6 7 8 8 6 8 8 7 7 7 7 7 7 7 7 8 7 6 6 5 5 5 4 4 4 3 3 3 3 2 2 2 1 1 0 -0 -0 -0 -0 -0 -0
2 2 2 2 2 2 4 4 4 5 7 8 7 7 7 7 7 7 7 7 6 6 7 7 7 6 6 5 5 5 5 4 3 3 3 2 2 2 1 1 0 0 0 -0 -0 -1 -1 -1 -2
2 0 -1 -0 1 2 3 2 3 5 6 7 8 7 6 7 8 6 7 6 7 7 7 7 7 6 6 5 5 4 4 3 2 2 2 2 2 1 1 0 0 -0 -0 -1 -1 -1 -2 -2 -2
2 2 -0 -1 1 1 0 0 1 2 5 8 7 7 7 7 7 6 6 6 6 6 6 6 6 6 6 5 5 4 4 3 2 2 2 1 1 1 0 -0 -0 -1 -1 -2 -2 -2 -3 -3 -3
3 2 -1 -1 -1 -0 -0 0 2 4 4 4 6 5 6 7 7 7 7 7 7 6 6 6 6 6 6 5 5 3 3 2 2 1 1 1 0 -0 -1 -1 -2 -2 -2 -3 -3 -3 -4 -4 -4
2 2 0 -1 1 1 3 5 5 5 5 6 6 6 7 7 7 7 7 7 6 6 6 5 6 6 5 4 3 3 3 2 1 1 1 0 -0 -1 -1 -2 -2 -3 -3 -4 -4 -4 -4 -4 -4
3 3 3 1 0 2 4 5 5 5 4 5 7 7 6 7 7 7 6 6 6 5 5 5 5 5 4 3 2 2 2 1 0 0 -0 -0 -1 -1 -2 -2 -3 -3 -4 -4 -4 -4 -5 -5 -5
4 4 4 2 1 0 1 4 5 4 4 5 5 6 6 6 6 6 5 5 5 5 5 5 5 3 3 2 2 1 1 1 0 -0 -0 -1 -2 -2 -3 -3 -4 -4 -4 -4 -5 -5 -6 -6 -6

GFSSGP_700_temp_102.txt.gz
Temp
9 9 9 10 10 10 11 13 13 13 13 13 13 13 13 13 12 12 12 12 12 12 12 12 12 11 10 11 10 10 10 10 9 9 9 9 9 9 9 9 9 9 9 9 9 9 9 9 9
9 9 9 9 9 10 11 13 12 12 12 12 13 13 13 12 12 12 12 12 12 12 12 12 12 11 10 10 10 10 10 10 9 9 9 9 9 9 9 9 9 8 8 8 8 8 8 8 9
9 9 9 9 9 10 12 13 11 12 13 12 13 13 12 12 12 12 12 12 12 12 12 12 11 11 11 10 10 10 10 10 10 9 9 9 9 9 9 8 8 8 8 8 8 8 8 8 8
8 8 8 8 10 11 12 13 12 11 12 12 12 12 12 13 12 12 12 12 12 12 12 11 11 11 10 10 10 9 9 9 9 9 9 9 8 8 8 8 8 8 8 7 7 7 8 8 8
8 8 8 8 10 11 11 12 10 10 11 11 11 12 12 12 12 12 12 12 12 12 11 11 11 10 10 10 10 9 9 9 9 9 8 8 8 8 7 8 8 8 8 7 7 7 7 8 8
7 7 8 8 10 11 11 10 10 10 10 11 11 11 11 12 12 12 12 11 11 11 11 11 11 10 10 10 9 9 9 8 8 8 8 7 7 7 8 8 8 8 8 8 7 7 7 7 8
8 7 8 8 9 10 10 10 10 9 10 10 10 11 11 11 12 12 12 11 11 11 11 10 10 10 10 9 9 9 8 8 8 7 7 7 7 8 8 8 8 8 8 7 7 7 7 7 7
7 7 7 7 8 9 10 9 9 9 9 9 10 10 10 10 11 12 12 11 11 11 11 10 10 10 9 9 9 8 8 8 8 7 7 7 8 8 8 8 8 8 7 7 7 7 6 6 6
6 6 7 7 7 8 9 9 8 8 9 9 10 8 9 8 9 11 11 11 11 11 11 10 10 10 9 9 9 8 8 8 8 7 8 8 8 8 8 7 7 7 7 7 6 6 6 6 5
6 6 6 7 8 8 8 8 8 8 8 8 10 9 9 9 8 9 11 11 11 11 11 10 10 10 9 9 9 8 8 8 8 8 8 8 8 8 7 7 7 7 6 6 6 6 5 5 5
6 7 6 6 6 7 8 8 7 7 8 8 9 9 9 9 8 8 10 11 10 10 10 10 10 9 9 9 9 8 8 8 8 8 8 8 7 7 7 7 6 6 6 6 5 5 5 5 4
6 6 6 6 6 6 7 7 7 7 8 8 8 9 9 9 8 8 9 10 10 10 10 10 10 10 10 10 9 8 8 8 8 7 7 7 7 7 7 6 6 6 6 5 5 5 4 4 4
5 5 5 5 5 5 6 7 7 7 7 8 8 8 8 8 9 6 6 7 9 9 10 10 10 10 10 9 8 8 8 7 7 7 6 6 7 7 6 6 6 5 5 5 5 5 4 4 4
5 5 6 5 6 6 5 7 7 7 7 7 8 7 8 8 8 7 6 7 9 9 9 10 10 9 9 9 8 7 6 6 6 6 6 6 6 6 6 5 5 5 5 5 4 4 4 4 3
4 4 5 6 5 5 5 7 7 7 7 7 7 8 8 8 7 8 7 8 8 9 9 10 10 9 9 8 8 7 6 6 6 6 6 5 5 4 5 5 5 5 4 4 4 4 4 4 4
4 4 3 4 4 4 5 6 6 6 7 7 7 7 8 8 8 8 7 7 8 8 9 9 9 9 9 8 8 7 6 6 6 6 5 5 5 5 4 5 4 4 4 4 4 4 3 4 4
3 2 3 3 4 4 4 4 5 6 6 6 7 7 7 8 8 7 7 7 8 8 8 9 9 9 9 8 8 7 6 6 5 5 5 5 5 5 5 5 4 4 4 3 3 3 3 3 3
2 2 2 3 3 3 4 4 5 5 6 6 7 7 7 7 8 8 8 8 8 7 7 7 7 8 8 7 7 7 6 5 4 4 4 4 5 5 4 4 4 4 3 3 3 3 3 3 2
2 2 2 3 3 2 3 4 4 5 5 6 6 6 7 7 8 7 8 7 7 7 7 6 7 7 7 6 7 6 6 5 4 5 4 4 4 4 4 4 3 3 3 3 3 2 3 3 2
2 2 2 2 2 2 3 3 3 4 6 6 7 6 7 7 8 7 7 7 7 7 7 6 7 7 7 6 6 5 5 5 4 4 4 4 4 4 4 4 4 3 3 3 2 2 2 2 2
2 2 2 2 2 2 2 3 3 3 4 6 6 6 7 7 8 7 7 7 7 7 7 7 6 6 7 6 5 5 5 5 4 4 3 4 3 3 3 3 3 3 3 2 2 2 2 2 1
2 3 2 2 2 1 2 1 2 2 3 5 6 7 7 7 7 8 7 6 6 6 6 7 7 6 6 5 6 5 5 4 4 4 3 3 3 3 3 3 3 3 3 2 2 1 1 1 0
3 3 2 -0 -1 -1 1 -1 2 2 3 4 6 7 7 7 7 8 8 6 6 5 6 6 6 6 6 5 5 5 4 4 2 3 3 2 3 3 3 3 2 2 2 2 1 1 0 0 -0
3 2 1 1 -0 -1 -0 0 2 1 2 4 5 6 7 7 7 7 7 6 6 7 6 6 6 5 5 5 4 4 4 2 2 3 3 3 3 2 2 2 2 1 1 1 1 0 -0 -0 -1
2 1 -1 -1 -1 -1 -1 -1 2 1 2 3 6 6 7 7 6 6 7 7 7 7 6 6 5 6 5 4 4 4 2 3 2 3 3 3 2 2 2 2 1 0 0 0 -0 -1 -1 -1 -2
2 2 -1 -2 -0 -1 -1 -1 0 1 2 3 5 6 6 7 6 7 7 6 6 6 6 6 5 6 5 5 3 4 3 4 4 4 3 3 2 2 1 0 -0 -0 -0 -1 -1 -2 -2 -2 -3
3 2 0 -1 -1 -2 2 1 1 1 1 4 5 5 6 6 5 6 5 6 5 5 5 5 5 5 4 4 3 4 4 4 4 4 3 2 2 1 0 -1 -1 -2 -2 -2 -2 -2 -3 -3 -3
3 3 1 -0 0 -2 2 2 1 2 -0 2 3 4 4 5 5 5 5 5 5 5 5 5 5 5 4 4 4 4 4 4 3 2 1 1 1 -0 -2 -1 -2 -3 -2 -2 -2 -3 -3 -4 -4
3 3 3 1 -0 0 -2 2 1 2 2 2 1 1 3 3 5 5 5 6 5 6 5 5 5 4 4 4 4 4 3 2 2 2 1 0 -0 -2 -2 -2 -3 -3 -3 -3 -3 -4 -4 -4 -4
3 3 3 3 2 0 -0 1 2 2 3 3 2 1 1 3 5 5 5 6 6 6 6 5 4 4 4 4 4 2 2 1 1 -0 -0 -1 -2 -3 -3 -3 -3 -3 -4 -4 -4 -4 -5 -5 -5

GFSSGP_700_temp_108.txt.gz
Temp
9 9 8 9 9 9 9 11 11 11 11 11 11 12 12 13 13 12 12 12 12 12 12 12 11 11 10 9 9 9 9 9 8 8 8 8 8 8 8 8 8 9 9 8 9 9 8 8 8
8 9 8 8 8 8 9 11 11 10 11 12 12 12 12 12 12 12 12 12 12 11 12 12 12 11 11 10 9 9 9 9 9 8 8 8 8 8 8 8 8 8 8 8 8 8 8 8 8
8 8 8 8 8 9 10 11 11 10 10 10 11 12 12 12 12 12 12 11 11 11 11 12 11 11 10 10 10 9 9 9 9 9 8 8 8 8 8 8 7 7 8 8 8 8 8 8 8
8 8 7 7 8 9 10 10 11 10 11 10 10 11 11 12 12 12 11 11 11 11 11 12 11 11 10 10 9 9 9 9 9 8 8 8 8 8 7 7 7 7 8 7 7 7 7 7 8
8 7 7 7 8 9 9 10 10 10 10 10 10 10 11 11 11 11 11 11 11 11 11 11 11 11 10 10 9 9 9 9 8 8 8 8 8 7 7 7 7 8 8 8 7 7 7 7 7
7 7 6 6 7 8 9 9 9 9 9 9 10 10 10 11 11 11 12 11 11 11 11 11 11 11 10 9 9 9 9 8 8 8 7 7 7 7 7 7 7 7 8 8 7 7 7 7 7
7 7 7 7 7 7 8 8 8 8 9 9 9 9 10 10 10 10 11 11 11 11 11 10 10 10 10 9 9 9 8 8 7 7 7 7 7 7 8 8 8 7 7 7 7 7 7 7 7
7 6 6 6 6 7 7 7 7 8 8 8 8 9 9 10 10 10 11 11 11 11 11 10 10 10 9 9 9 8 8 8 7 7 7 7 7 7 8 8 8 8 7 7 7 7 7 6 6
6 5 6 5 5 6 6 7 7 7 8 8 8 8 9 9 10 10 10 11 11 11 11 10 10 9 9 9 9 8 7 7 7 7 7 7 7 7 7 7 7 7 7 7 7 6 6 6 6
5 5 5 5 4 5 6 6 6 6 7 7 8 8 8 9 9 9 9 10 11 11 10 10 10 9 9 9 9 8 7 7 7 7 7 7 7 7 7 7 7 7 6 6 6 6 6 5 5
5 5 5 4 4 4 5 6 6 5 6 7 7 7 8 9 8 8 9 9 10 10 10 10 9 9 9 9 8 8 7 7 7 7 7 7 7 7 7 7 7 6 6 6 5 5 5 5 5
4 4 4 4 5 5 5 5 6 6 6 6 7 7 8 9 9 9 9 9 10 10 9 9 9 9 9 8 8 7 7 7 7 7 7 7 7 7 7 6 6 6 5 5 5 5 5 4 4
4 3 4 4 5 5 5 5 5 6 6 6 7 7 8 9 9 9 8 9 9 10 9 9 9 9 8 8 8 7 7 7 7 7 6 6 6 6 6 6 5 5 5 5 4 4 4 4 4
3 3 3 4 4 4 5 5 5 6 6 5 7 7 7 8 9 9 9 8 8 9 9 9 9 9 8 8 7 7 6 7 6 6 6 6 6 6 6 5 5 5 4 4 4 4 4 3 3
2 3 3 3 3 3 4 5 5 5 6 6 6 7 7 8 8 9 8 8 8 9 10 9 9 9 8 8 7 6 6 6 6 6 6 5 5 5 5 5 5 4 4 4 3 3 3 3 3
2 2 2 4 3 3 3 3 4 4 4 5 6 6 7 7 7 8 8 8 8 8 8 9 9 8 7 7 7 6 6 6 6 5 5 5 5 5 5 4 4 4 4 4 3 3 3 3 3
2 1 2 3 3 2 2 2 3 4 4 4 5 6 6 6 7 7 7 7 7 8 8 7 8 8 7 7 7 6 6 5 5 5 5 4 4 5 4 4 4 4 3 4 3 3 3 3 3
1 2 2 2 3 2 2 3 3 3 4 4 4 5 5 6 7 7 7 7 6 7 7 7 7 7 6 6 6 6 6 6 6 5 5 4 4 4 4 4 4 3 3 3 3 3 3 3 3
2 2 2 2 2 1 1 1 2 3 4 4 4 4 5 5 6 6 7 6 6 7 7 7 6 6 6 6 6 5 6 6 6 5 4 4 4 4 4 4 3 3 3 3 3 2 2 2 2
3 2 2 1 1 1 1 1 3 3 3 3 3 4 5 5 6 6 7 7 6 6 7 6 6 5 4 5 5 5 6 5 5 4 4 3 3 3 3 3 3 3 3 2 2 2 2 2 2
3 2 2 1 2 1 -0 1 1 1 1 2 3 4 4 5 5 6 6 7 7 6 6 6 6 5 4 5 5 4 4 4 4 4 4 3 3 1 2 1 2 3 3 2 2 2 1 1 1
3 2 2 2 2 -0 -1 -2 1 1 2 2 2 3 4 5 5 6 6 7 6 7 7 6 6 5 5 5 5 4 4 4 4 4 4 4 3 1 1 2 2 2 2 2 2 2 1 1 1
3 2 3 4 2 0 -1 -2 1 1 2 2 2 2 3 5 5 6 6 6 7 7 7 7 6 5 5 5 5 5 5 5 4 4 3 3 2 1 2 2 2 2 2 2 2 1 1 1 1
3 4 3 4 2 -0 -2 -2 0 -1 -1 2 2 3 3 5 6 6 6 6 7 7 7 6 6 6 6 5 5 5 4 5 4 4 3 1 1 0 2 2 2 2 2 2 1 1 1 0 -0
3 3 0 -1 -2 -3 -1 -1 -1 -1 -1 0 2 2 3 5 5 6 6 6 7 7 7 6 6 6 6 5 5 4 4 2 1 1 1 1 2 2 1 1 1 1 1 1 1 0 -0 -0 -1
2 1 -1 -0 -1 -1 0 -0 -2 -2 -1 0 1 2 3 5 5 5 5 6 6 7 7 6 5 5 5 4 4 4 3 1 0 2 2 2 2 2 2 1 1 1 1 1 0 -0 -1 -1 -1
2 2 0 0 -2 -2 0 1 -1 -2 -0 0 1 3 3 4 5 4 5 5 5 5 5 4 4 3 3 4 4 2 1 2 2 2 2 3 2 2 2 2 0 1 0 -0 -1 -1 -2 -2 -3
2 2 1 1 -3 -1 0 0 -1 -1 -1 0 1 2 4 4 5 4 5 4 4 5 4 4 4 4 3 2 1 2 2 2 2 2 2 2 2 2 2 1 1 0 -0 -1 -1 -2 -2 -3 -3
3 2 1 0 0 -2 -0 0 0 -1 -1 -0 0 1 2 3 4 4 4 4 4 4 4 4 3 3 2 3 2 2 2 2 2 2 1 2 1 1 1 1 0 -0 -1 -2 -2 -3 -3 -3 -4
3 2 1 1 1 0 -1 1 1 1 -0 -1 0 1 1 2 3 4 4 4 3 3 3 3 3 3 2 2 2 1 1 1 1 1 1 0 1 -0 -0 -1 -1 -2 -3 -3 -3 -4 -4 -4 -4

GFSSGP_700_temp_114.txt.gz
Temp
9 9 9 8 8 8 10 10 10 10 10 9 11 11 11 11 11 12 12 12 12 12 12 11 11 10 10 10 10 10 9 9 9 9 8 9 9 9 9 9 9 9 9 9 9 9 9 9 9
9 8 8 8 8 10 11 10 10 10 9 10 11 11 11 11 12 12 12 12 11 11 11 11 11 10 10 9 9 9 9 9 9 8 8 9 9 9 9 9 9 9 9 9 9 9 9 9 9
9 8 8 7 8 10 11 10 10 10 10 9 9 10 10 11 12 12 11 11 11 11 11 11 11 9 9 9 9 9 8 9 9 9 8 8 9 9 9 8 8 8 8 8 8 9 9 9 8
9 8 7 7 9 8 9 9 9 9 9 9 9 9 10 11 11 11 11 11 11 11 11 11 11 9 8 8 9 9 8 9 9 9 8 9 9 8 7 7 8 8 8 8 8 8 8 9 8
8 7 7 7 8 9 7 8 9 8 8 8 9 9 10 10 11 11 11 11 11 10 10 10 10 9 8 9 9 9 8 9 9 8 8 9 8 8 7 7 7 8 8 8 8 8 8 8 8
7 6 7 8 9 8 7 7 7 8 8 8 9 9 10 10 10 11 11 11 11 10 10 10 10 9 9 8 9 9 9 9 9 8 8 8 8 8 7 7 7 7 8 8 8 8 8 7 7
7 5 7 8 8 7 7 7 7 7 8 8 9 8 9 9 10 10 11 11 11 11 10 10 10 8 8 8 8 8 9 8 8 8 8 8 7 7 7 8 7 8 8 8 8 8 7 7 7
7 4 6 6 7 7 7 6 6 6 6 8 8 8 8 9 9 9 9 10 10 11 10 10 10 9 8 8 8 8 8 8 8 8 7 7 7 7 7 8 8 8 7 7 7 7 7 7 7
6 4 6 6 5 6 5 5 5 7 6 7 7 8 8 8 9 9 9 9 10 10 10 10 10 9 9 8 8 8 8 8 8 7 7 7 6 7 7 7 7 7 7 7 7 7 7 7 6
5 4 5 5 4 4 5 4 5 5 5 6 7 7 8 8 8 9 9 8 9 9 10 10 9 9 9 8 8 8 8 8 7 7 7 7 6 7 7 7 7 7 7 7 6 6 6 6 6
5 4 4 6 5 4 5 5 4 4 5 5 6 6 7 7 7 8 8 8 8 9 9 10 9 9 8 8 8 8 8 7 7 6 7 7 7 7 7 7 7 7 7 6 6 6 6 6 6
5 4 4 5 5 5 5 4 6 5 4 4 6 6 7 7 7 7 7 8 8 9 9 9 9 9 8 8 8 8 7 7 6 7 6 7 7 7 7 7 7 7 6 6 5 5 5 5 5
4 3 4 4 4 4 4 5 5 5 5 5 6 6 6 7 7 7 8 7 7 8 8 9 9 9 8 8 8 8 7 6 6 6 7 7 6 6 6 6 6 6 6 6 5 5 4 4 4
3 4 4 3 3 3 3 3 4 4 5 5 6 6 6 6 7 7 8 7 7 7 8 8 8 8 8 8 8 7 7 7 6 7 6 6 6 6 6 6 6 6 6 5 5 4 4 4 4
4 4 3 3 3 3 3 4 4 3 4 4 5 5 5 6 6 7 7 7 7 7 7 7 8 8 8 7 7 7 7 7 6 6 6 6 6 6 5 5 5 5 5 5 4 4 4 4 4
4 3 4 3 3 2 2 4 4 3 3 3 3 4 5 5 6 7 7 7 7 6 7 6 7 8 8 7 7 6 6 7 7 6 6 6 5 5 5 5 5 4 4 4 4 4 4 4 3
3 4 3 3 2 2 2 3 3 2 2 2 3 3 4 5 5 6 7 7 6 6 5 6 6 7 7 7 7 6 6 6 6 6 5 5 5 4 4 4 4 4 4 3 3 3 3 3 3
3 3 3 3 3 2 2 2 2 1 1 1 2 4 4 4 5 5 6 6 6 6 6 5 5 6 6 6 6 6 5 6 6 6 5 5 4 4 4 4 4 3 3 3 3 3 3 3 3
3 2 3 3 2 1 2 1 1 -0 1 1 2 2 2 5 5 5 6 6 6 6 6 6 5 5 6 6 6 6 6 6 6 6 5 5 4 4 3 4 4 3 3 2 2 2 3 3 2
3 3 4 3 2 1 0 1 0 1 1 1 1 2 3 4 4 5 5 6 6 6 6 6 5 5 5 5 5 5 6 5 5 5 4 4 4 3 3 3 3 2 2 2 2 2 2 2 2
4 3 2 2 2 1 1 2 1 1 -0 -1 0 1 2 3 4 5 5 5 6 6 6 6 5 5 5 5 4 4 4 4 4 4 4 3 3 3 4 2 2 1 2 1 1 1 1 2 2
4 2 3 3 2 3 0 5 3 0 0 1 0 1 2 3 3 4 5 5 5 6 5 6 6 5 5 5 5 4 4 3 3 4 3 3 3 3 3 2 2 -0 1 1 1 0 1 1 1
3 3 3 3 2 2 2 1 2 -1 1 0 1 2 2 2 3 4 4 5 6 6 6 5 5 5 5 4 4 4 4 4 3 3 3 4 4 3 2 2 2 2 1 -0 -1 -1 1 1 1
4 2 3 3 3 6 1 -0 2 -2 -1 -0 1 1 2 2 3 4 5 5 5 6 6 6 5 4 3 4 4 4 3 2 3 3 3 3 3 3 3 2 0 -0 -0 0 0 -0 -0 1 1
4 3 4 5 4 5 1 2 -0 -1 -0 -1 0 1 1 2 3 4 5 5 6 6 6 6 6 6 5 4 4 3 2 3 3 3 3 3 3 3 1 0 1 -0 -0 -0 1 0 -0 -0 -0
3 1 1 2 4 3 1 1 -1 -1 -0 -1 -0 1 2 2 3 3 4 5 6 6 6 6 5 5 4 3 2 3 3 2 3 2 2 1 1 1 2 1 0 -0 0 -0 0 0 -0 -1 -1
3 2 1 0 -1 2 2 3 0 0 1 1 0 2 3 3 3 4 4 5 5 5 5 5 5 4 4 3 3 3 2 2 3 3 2 2 1 1 1 1 0 -0 -0 -0 0 -1 -1 -2 -1
3 3 2 2 2 3 5 3 0 1 1 2 2 2 2 3 3 3 4 4 4 4 4 4 4 4 3 3 3 3 2 2 2 2 1 1 1 1 1 1 1 -0 0 0 -0 -1 -0 -3 -2
2 2 2 1 1 4 5 4 1 1 1 1 1 2 2 2 3 3 3 4 4 4 4 3 3 3 2 2 2 3 2 2 2 2 2 1 1 1 1 1 1 0 1 1 -1 -1 -1 -2 -3
3 2 2 3 3 2 2 4 2 1 1 1 1 1 2 2 3 3 3 3 3 4 3 3 2 2 2 2 2 2 1 1 1 2 2 1 1 1 1 1 1 1 0 -0 -1 -1 -2 -2 -3

GFSSGP_700_temp_117.txt.gz
Temp
9 8 8 8 8 9 11 13 12 12 12 11 11 11 12 13 13 12 12 12 12 12 12 12 11 10 10 10 10 9 10 9 9 9 9 9 9 9 9 9 9 9 9 9 9 9 9 9 9
9 8 8 8 8 11 13 13 12 12 11 10 10 11 11 12 12 12 12 12 12 11 11 11 11 10 10 9 10 9 10 9 9 8 9 9 9 9 9 9 9 8 9 9 9 9 9 9 9
9 8 7 8 9 10 12 13 12 11 11 10 11 11 11 11 12 12 12 12 11 11 11 11 11 10 10 10 9 9 9 9 9 8 9 9 9 9 9 8 8 8 8 8 9 9 9 9 8
9 8 7 8 10 11 11 12 11 10 10 10 10 11 10 11 11 12 12 11 11 11 11 11 11 10 10 9 9 9 9 8 8 8 9 9 9 8 8 7 8 8 8 8 9 9 9 9 8
8 6 7 9 9 10 11 10 10 10 10 10 10 10 10 10 11 11 11 11 11 11 11 11 10 10 10 9 9 8 8 8 8 8 8 8 8 8 7 7 7 7 8 8 9 9 8 8 8
6 6 8 9 10 10 11 10 10 10 10 10 10 10 10 10 10 11 11 11 11 11 11 10 10 9 9 9 9 9 8 8 8 8 8 8 8 7 7 7 7 8 8 8 8 9 8 8 8
7 7 8 9 10 10 10 10 9 9 9 10 9 9 9 10 10 10 10 11 11 11 11 10 10 9 9 9 9 8 8 8 8 8 8 8 7 7 7 7 6 8 8 8 8 8 8 8 7
7 6 7 8 9 9 9 9 9 8 9 8 8 9 9 9 10 10 10 10 10 11 11 11 10 9 8 8 8 8 8 8 8 8 8 7 7 7 7 7 7 7 7 8 8 8 8 7 7
7 5 7 8 8 8 8 7 7 7 6 7 7 7 7 7 9 9 9 9 10 9 9 10 10 9 8 8 8 8 8 8 8 8 7 7 7 6 7 7 7 7 7 7 7 7 7 7 7
6 6 7 7 6 6 6 7 7 7 6 7 7 7 7 8 8 8 9 9 9 8 6 9 10 9 8 8 9 8 8 8 8 7 6 7 6 6 7 7 7 7 7 7 7 7 6 6 6
5 5 6 5 5 5 5 5 5 5 6 6 7 7 7 7 8 8 8 8 7 7 7 7 8 8 7 6 9 8 8 8 7 6 6 6 6 6 7 7 7 7 7 7 6 6 6 6 6
5 5 4 4 4 4 4 4 5 5 5 5 5 6 6 6 6 7 8 8 8 7 6 7 7 6 4 8 8 8 8 8 6 6 5 6 6 7 7 7 7 7 7 6 6 5 5 5 5
4 4 4 3 3 3 3 4 4 4 5 5 5 5 5 5 5 6 7 7 7 6 6 5 6 5 7 8 7 7 8 7 6 6 6 6 7 7 7 7 7 6 6 6 5 5 5 5 5
4 3 4 4 3 3 3 4 4 4 5 4 4 5 5 5 5 5 7 7 6 7 7 7 7 7 5 7 7 7 7 6 6 6 6 6 7 6 6 6 6 6 6 5 5 5 5 4 4
5 4 5 4 4 4 3 4 5 4 4 4 4 5 5 5 5 5 5 7 7 6 6 7 8 8 7 7 6 7 7 6 6 6 6 6 6 6 6 6 6 6 5 5 5 5 4 4 4
4 5 6 5 4 4 3 4 5 5 4 4 4 5 5 5 4 5 5 5 7 7 6 6 7 8 7 6 7 6 6 6 6 6 6 7 6 6 6 6 6 5 5 5 5 4 4 4 4
7 7 6 5 5 4 3 4 4 4 3 3 3 4 4 5 5 4 4 4 7 7 7 6 6 6 7 7 6 6 6 6 6 6 6 6 6 6 6 5 5 5 5 4 4 4 4 3 3
5 5 5 6 5 4 3 4 3 2 1 2 2 3 4 4 5 5 4 5 7 6 6 5 7 6 6 6 6 6 6 6 6 6 6 6 6 5 5 5 5 5 4 4 4 3 3 3 3
4 5 6 5 4 3 3 3 2 2 1 1 1 2 3 4 4 4 4 6 6 5 6 4 5 5 6 7 7 6 6 6 5 6 6 6 5 5 5 4 4 5 4 4 3 3 3 2 2
5 6 6 5 4 3 3 3 3 2 1 0 1 1 1 1 2 3 4 5 6 6 5 3 5 4 5 6 6 6 6 5 5 5 5 5 5 5 5 4 4 4 4 3 3 3 2 2 2
5 5 4 3 4 4 4 4 3 2 0 -1 -1 -0 -0 1 1 2 2 5 5 6 7 6 6 5 6 5 5 5 5 4 4 4 4 4 5 5 5 4 4 3 4 3 2 2 2 1 1
5 4 2 3 4 6 4 6 4 1 0 -0 -1 -0 -0 1 1 1 2 5 5 6 6 5 5 5 5 5 5 4 5 4 4 3 3 2 3 3 3 3 3 3 3 2 2 1 1 0 0
4 3 4 3 4 5 5 4 4 1 1 1 -0 1 2 2 2 2 2 4 5 6 6 5 4 4 5 5 5 4 4 4 4 3 3 3 2 2 2 3 3 3 1 1 1 1 0 1 0
3 4 4 3 5 6 4 2 4 0 -1 -0 -0 1 2 2 3 3 2 4 4 5 6 6 5 4 4 5 4 4 4 4 3 3 3 3 3 3 2 2 2 2 1 1 0 0 -1 -2 -1
4 5 6 6 6 7 4 4 1 0 -0 -1 -1 1 1 2 2 2 2 4 5 5 6 6 6 5 3 4 3 4 3 3 3 2 2 2 2 2 3 3 2 2 2 1 -0 -1 -1 -0 -1
3 3 3 1 5 4 4 3 2 1 -0 -0 -0 2 2 2 2 3 3 5 5 5 5 5 5 5 4 4 4 4 3 3 2 1 2 3 2 3 2 1 1 1 0 -0 -1 -1 -1 -1 0
4 4 3 1 2 3 5 5 2 1 0 1 1 2 3 2 2 3 3 4 4 5 5 4 4 4 4 4 4 4 3 2 3 2 3 2 1 1 1 1 1 0 -0 -0 -1 -0 -1 -0 1
4 3 4 4 3 5 8 6 4 2 1 0 1 1 2 2 3 3 3 3 4 5 5 4 4 4 4 4 3 3 3 3 3 2 2 1 2 1 2 2 1 1 1 -0 -0 -0 0 0 -1
4 4 4 3 4 5 7 6 2 1 1 1 1 1 0 1 2 3 3 4 4 4 4 4 4 3 3 3 3 2 2 2 1 2 2 2 1 1 1 1 1 0 0 -0 -0 -0 -0 -0 -1
4 3 3 4 5 5 5 5 2 2 1 1 2 1 1 2 2 2 3 3 3 4 3 3 3 2 2 2 2 2 2 1 1 1 1 2 1 1 1 1 1 0 0 -0 -0 -1 -1 -1 -2